Station History

Weather Underground - logo

Station Historical Data
Daily Summary for January 28, 2018 Units:  English    Metric   Both
« Previous Day
Next Day »
Daily Weekly Monthly Yearly Custom
  High: Low: Average:
Temperature: 62.5 °F 41.6 °F 49.9 °F
Dew Point: 46.9 °F 39.2 °F 43.6 °F
Humidity: 93 % 54 % 80 %
Wind Speed: 3.5 mph 0.0 mph 0.1 mph
Wind Gust: 3.5 mph - -
Wind:- - WNW
Pressure: 30.42 in 30.30 in -
Precipitation: 0.00 in    
Historical Graphs
 
 
Tabular Data for January 28, 2018
Time Temperature Dew Point Pressure Wind Wind Speed Wind Gust Humidity Rainfall Rate (Hourly)
10:42 57.2 °F 45.1 °F 30.42 in WSW 2.3 mph 2.3 mph 64 % 0.00 in
15:48 62.4 °F 45.5 °F 30.32 in NW 3.5 mph 3.5 mph 54 % 0.00 in
15:53 62.5 °F 46.1 °F 30.32 in WNW 1.2 mph   55 % 0.00 in
15:58 62.4 °F 45.5 °F 30.32 in NW 1.2 mph 1.2 mph 54 % 0.00 in
16:03 62.3 °F 45.4 °F 30.32 in Calm     54 % 0.00 in
16:08 62.2 °F 45.8 °F 30.31 in Calm     55 % 0.00 in
16:13 62.1 °F 45.7 °F 30.31 in Calm     55 % 0.00 in
16:18 61.9 °F 45.5 °F 30.31 in Calm     55 % 0.00 in
16:23 61.7 °F 45.8 °F 30.31 in Calm     56 % 0.00 in
16:28 61.4 °F 45.6 °F 30.31 in Calm     56 % 0.00 in
16:33 61.2 °F 45.8 °F 30.30 in Calm     57 % 0.00 in
16:38 61.1 °F 46.2 °F 30.30 in Calm     58 % 0.00 in
16:43 61.0 °F 46.1 °F 30.30 in Calm     58 % 0.00 in
16:48 60.8 °F 46.4 °F 30.30 in Calm     59 % 0.00 in
16:53 60.5 °F 46.5 °F 30.30 in Calm     60 % 0.00 in
16:58 60.1 °F 46.6 °F 30.30 in Calm     61 % 0.00 in
17:03 59.5 °F 46.9 °F 30.30 in Calm     63 % 0.00 in
17:08 58.9 °F 46.7 °F 30.31 in Calm     64 % 0.00 in
17:13 58.2 °F 46.5 °F 30.31 in Calm     65 % 0.00 in
17:18 57.7 °F 46.8 °F 30.31 in Calm     67 % 0.00 in
17:23 57.2 °F 46.7 °F 30.31 in Calm     68 % 0.00 in
17:28 56.7 °F 46.6 °F 30.31 in Calm     69 % 0.00 in
17:33 56.1 °F 46.4 °F 30.31 in Calm     70 % 0.00 in
17:38 55.5 °F 46.6 °F 30.31 in Calm     72 % 0.00 in
17:43 54.9 °F 46.8 °F 30.31 in Calm     74 % 0.00 in
17:48 54.4 °F 46.3 °F 30.31 in Calm     74 % 0.00 in
17:53 53.9 °F 46.5 °F 30.31 in Calm     76 % 0.00 in
17:58 53.3 °F 45.9 °F 30.31 in Calm     76 % 0.00 in
18:03 52.8 °F 45.8 °F 30.31 in Calm     77 % 0.00 in
18:08 52.3 °F 46.0 °F 30.31 in Calm     79 % 0.00 in
18:13 52.0 °F 45.7 °F 30.31 in Calm     79 % 0.00 in
18:18 51.8 °F 45.8 °F 30.31 in Calm     80 % 0.00 in
18:23 51.6 °F 45.6 °F 30.31 in Calm     80 % 0.00 in
18:28 51.4 °F 45.8 °F 30.31 in Calm     81 % 0.00 in
18:33 51.0 °F 45.4 °F 30.31 in Calm     81 % 0.00 in
18:38 50.6 °F 45.0 °F 30.32 in Calm     81 % 0.00 in
18:43 50.3 °F 45.0 °F 30.32 in Calm     82 % 0.00 in
18:49 50.1 °F 44.8 °F 30.32 in Calm     82 % 0.00 in
18:54 50.0 °F 45.0 °F 30.32 in Calm     83 % 0.00 in
18:59 49.9 °F 44.9 °F 30.32 in Calm     83 % 0.00 in
19:04 49.6 °F 44.6 °F 30.32 in Calm     83 % 0.00 in
19:09 49.4 °F 44.5 °F 30.32 in Calm     83 % 0.00 in
19:14 49.3 °F 44.4 °F 30.32 in Calm     83 % 0.00 in
19:19 49.1 °F 44.5 °F 30.32 in Calm     84 % 0.00 in
19:24 49.4 °F 44.8 °F 30.32 in Calm     84 % 0.00 in
19:29 49.6 °F 44.6 °F 30.32 in Calm     83 % 0.00 in
19:34 49.3 °F 44.0 °F 30.32 in Calm     82 % 0.00 in
19:39 48.9 °F 44.0 °F 30.32 in Calm     83 % 0.00 in
19:44 48.5 °F 43.9 °F 30.32 in Calm     84 % 0.00 in
19:49 48.2 °F 43.9 °F 30.32 in Calm     85 % 0.00 in
19:54 47.9 °F 43.6 °F 30.32 in Calm     85 % 0.00 in
19:59 47.7 °F 43.7 °F 30.32 in Calm     86 % 0.00 in
20:04 47.5 °F 43.5 °F 30.32 in Calm     86 % 0.00 in
20:09 47.3 °F 43.3 °F 30.32 in Calm     86 % 0.00 in
20:14 46.9 °F 42.9 °F 30.32 in Calm     86 % 0.00 in
20:19 46.7 °F 42.7 °F 30.33 in Calm     86 % 0.00 in
20:24 46.4 °F 42.4 °F 30.33 in Calm     86 % 0.00 in
20:29 46.2 °F 42.2 °F 30.33 in Calm     86 % 0.00 in
20:34 46.1 °F 42.4 °F 30.33 in Calm     87 % 0.00 in
20:39 46.3 °F 42.9 °F 30.32 in Calm     88 % 0.00 in
20:44 46.5 °F 43.1 °F 30.32 in Calm     88 % 0.00 in
20:49 46.0 °F 42.0 °F 30.32 in Calm     86 % 0.00 in
20:54 45.8 °F 42.2 °F 30.32 in Calm     87 % 0.00 in
20:59 45.5 °F 41.9 °F 30.32 in Calm     87 % 0.00 in
21:04 45.5 °F 42.2 °F 30.32 in Calm     88 % 0.00 in
21:09 45.3 °F 42.0 °F 30.32 in Calm     88 % 0.00 in
21:14 45.1 °F 41.8 °F 30.33 in Calm     88 % 0.00 in
21:19 45.1 °F 42.1 °F 30.33 in Calm     89 % 0.00 in
21:24 45.0 °F 42.0 °F 30.33 in Calm     89 % 0.00 in
21:29 44.8 °F 41.8 °F 30.33 in Calm     89 % 0.00 in
21:34 44.6 °F 41.6 °F 30.33 in Calm     89 % 0.00 in
21:39 44.5 °F 41.7 °F 30.33 in Calm     90 % 0.00 in
21:44 44.5 °F 41.7 °F 30.33 in Calm     90 % 0.00 in
21:49 44.4 °F 41.7 °F 30.33 in Calm     90 % 0.00 in
21:54 44.5 °F 41.7 °F 30.33 in Calm     90 % 0.00 in
22:00 44.5 °F 42.0 °F 30.33 in Calm     91 % 0.00 in
22:05 44.5 °F 42.0 °F 30.33 in Calm     91 % 0.00 in
22:10 44.4 °F 41.7 °F 30.33 in Calm     90 % 0.00 in
22:15 44.2 °F 41.2 °F 30.33 in Calm     89 % 0.00 in
22:20 43.9 °F 40.9 °F 30.33 in Calm     89 % 0.00 in
22:25 43.6 °F 40.9 °F 30.33 in Calm     90 % 0.00 in
22:30 43.4 °F 40.7 °F 30.33 in Calm     90 % 0.00 in
22:35 43.2 °F 40.5 °F 30.33 in Calm     90 % 0.00 in
22:40 42.9 °F 40.2 °F 30.33 in Calm     90 % 0.00 in
22:45 42.8 °F 40.4 °F 30.33 in Calm     91 % 0.00 in
22:50 42.7 °F 40.3 °F 30.33 in Calm     91 % 0.00 in
22:55 42.8 °F 40.6 °F 30.33 in Calm     92 % 0.00 in
23:00 42.9 °F 40.7 °F 30.33 in Calm     92 % 0.00 in
23:05 43.1 °F 40.9 °F 30.32 in Calm     92 % 0.00 in
23:10 43.2 °F 41.0 °F 30.32 in Calm     92 % 0.00 in
23:15 43.6 °F 41.7 °F 30.32 in Calm     93 % 0.00 in
23:20 43.8 °F 41.6 °F 30.33 in Calm     92 % 0.00 in
23:25 43.5 °F 40.8 °F 30.33 in WNW 1.2 mph 1.2 mph 90 % 0.00 in
23:30 42.8 °F 40.1 °F 30.33 in Calm     90 % 0.00 in
23:35 42.5 °F 39.8 °F 30.33 in Calm     90 % 0.00 in
23:40 42.3 °F 39.9 °F 30.34 in Calm     91 % 0.00 in
23:45 42.1 °F 39.7 °F 30.34 in Calm     91 % 0.00 in
23:50 41.9 °F 39.5 °F 30.34 in Calm     91 % 0.00 in
23:55 41.6 °F 39.2 °F 30.34 in Calm     91 % 0.00 in
Park Place, Exeter, Tulare County, California, USA
Compliments of Weather Underground - 1.75 mb